When you browse on this site, cookies collect data to enhance your experience and personalize the content and advertising you see.
Visit our Privacy Policy to learn more. By continuing to use the site, you agree to this use of cookies and data.
  • In Deutschland
  • Länderverzeichnis
  • Für 7 Tage
  • Wassertemperatur
  • Satellitenkarten
  • Wetterkarte
  • Widgets
  • user-avatar
    Anmelden

    Stündliche Wetter Lubango

    Heute, 25 April, Donnerstag

    Zeit Temperatur Niederschläge Wind Luftdruck Luftfeuchtigkeit
    00:00 +16°C° 0 mm 1 m/S 609 mmHg 48%
    01:00 +16°C° 0 mm 1 m/S 609 mmHg 46%
    02:00 +16°C° 0 mm 1 m/S 609 mmHg 45%
    03:00 +16°C° 0 mm 1 m/S 609 mmHg 44%
    04:00 +16°C° 0 mm 1 m/S 609 mmHg 43%
    05:00 +16°C° 0 mm 1 m/S 609 mmHg 44%
    06:00 +16°C° 0 mm 1 m/S 609 mmHg 44%
    07:00 +18°C° 0 mm 1 m/S 610 mmHg 45%
    08:00 +22°C° 0 mm 1 m/S 611 mmHg 40%
    09:00 +25°C° 0 mm 1 m/S 612 mmHg 34%
    10:00 +28°C° 0 mm 1 m/S 613 mmHg 29%
    11:00 +29°C° 0 mm 1 m/S 613 mmHg 28%
    12:00 +30°C° 0 mm 1 m/S 613 mmHg 27%
    13:00 +31°C° 0 mm 1 m/S 613 mmHg 26%
    14:00 +29°C° 0 mm 2 m/S 612 mmHg 29%
    15:00 +28°C° 0 mm 2 m/S 611 mmHg 31%
    16:00 +27°C° 0 mm 2 m/S 610 mmHg 34%
    17:00 +25°C° 0 mm 2 m/S 609 mmHg 37%
    18:00 +21°C° 0 mm 2 m/S 609 mmHg 40%
    19:00 +18°C° 0 mm 2 m/S 608 mmHg 43%
    20:00 +19°C° 0 mm 1 m/S 608 mmHg 42%
    21:00 +19°C° 0 mm 1 m/S 609 mmHg 41%
    22:00 +19°C° 0 mm 1 m/S 609 mmHg 40%
    23:00 +19°C° 0 mm 1 m/S 609 mmHg 40%

    Morgen, 26 April, Freitag

    Zeit Temperatur Niederschläge Wind Luftdruck Luftfeuchtigkeit
    00:00 +18°C° 0 mm 1 m/S 609 mmHg 40%
    01:00 +18°C° 0 mm 1 m/S 609 mmHg 40%
    02:00 +18°C° 0 mm 1 m/S 608 mmHg 40%
    03:00 +16°C° 0 mm 1 m/S 608 mmHg 40%
    04:00 +16°C° 0 mm 1 m/S 608 mmHg 39%
    05:00 +18°C° 0 mm 1 m/S 608 mmHg 42%
    06:00 +18°C° 0 mm 1 m/S 608 mmHg 44%
    07:00 +18°C° 0 mm 1 m/S 608 mmHg 47%
    08:00 +21°C° 0 mm 1 m/S 610 mmHg 44%
    09:00 +24°C° 0 mm 2 m/S 611 mmHg 41%
    10:00 +27°C° 0 mm 2 m/S 612 mmHg 38%
    11:00 +27°C° 0 mm 2 m/S 612 mmHg 39%
    12:00 +27°C° 0 mm 1 m/S 611 mmHg 40%
    13:00 +27°C° 0 mm 1 m/S 610 mmHg 41%
    14:00 +25°C° 0.1 mm 1 m/S 609 mmHg 46%
    15:00 +24°C° 0.1 mm 1 m/S 608 mmHg 51%
    16:00 +22°C° 0.1 mm 1 m/S 607 mmHg 56%
    17:00 +21°C° 0 mm 1 m/S 607 mmHg 57%
    18:00 +20°C° 0 mm 1 m/S 607 mmHg 59%
    19:00 +19°C° 0 mm 1 m/S 607 mmHg 60%
    20:00 +19°C° 0 mm 1 m/S 608 mmHg 59%
    21:00 +19°C° 0 mm 1 m/S 608 mmHg 58%
    22:00 +19°C° 0 mm 1 m/S 608 mmHg 57%
    23:00 +19°C° 0 mm 1 m/S 608 mmHg 57%

    übermorgen, 27 April, Samstag

    Zeit Temperatur Niederschläge Wind Luftdruck Luftfeuchtigkeit
    00:00 +19°C° 0 mm 1 m/S 608 mmHg 56%
    01:00 +19°C° 0 mm 1 m/S 608 mmHg 56%
    02:00 +19°C° 0 mm 1 m/S 608 mmHg 57%
    03:00 +17°C° 0 mm 0 m/S 608 mmHg 58%
    04:00 +17°C° 0 mm 0 m/S 607 mmHg 59%
    05:00 +17°C° 0 mm 0 m/S 608 mmHg 61%
    06:00 +19°C° 0 mm 1 m/S 608 mmHg 62%
    07:00 +19°C° 0 mm 1 m/S 608 mmHg 63%
    08:00 +22°C° 0 mm 1 m/S 610 mmHg 55%
    09:00 +24°C° 0 mm 1 m/S 611 mmHg 47%
    10:00 +27°C° 0 mm 2 m/S 612 mmHg 39%
    11:00 +27°C° 0 mm 2 m/S 611 mmHg 40%
    12:00 +27°C° 0 mm 1 m/S 611 mmHg 40%
    13:00 +27°C° 0 mm 1 m/S 610 mmHg 40%
    14:00 +26°C° 0 mm 1 m/S 609 mmHg 43%
    15:00 +25°C° 0 mm 1 m/S 608 mmHg 46%
    16:00 +24°C° 0 mm 1 m/S 608 mmHg 49%
    17:00 +22°C° 0 mm 1 m/S 607 mmHg 51%
    18:00 +21°C° 0 mm 1 m/S 607 mmHg 53%
    19:00 +20°C° 0 mm 1 m/S 607 mmHg 55%
    20:00 +20°C° 0 mm 1 m/S 608 mmHg 54%
    21:00 +19°C° 0 mm 1 m/S 608 mmHg 54%
    22:00 +19°C° 0 mm 1 m/S 609 mmHg 53%
    23:00 +19°C° 0 mm 1 m/S 609 mmHg 52%

    28 April, Sonntag

    Zeit Temperatur Niederschläge Wind Luftdruck Luftfeuchtigkeit
    00:00 +19°C° 0 mm 1 m/S 609 mmHg 51%
    01:00 +19°C° 0 mm 1 m/S 609 mmHg 49%
    02:00 +19°C° 0 mm 1 m/S 608 mmHg 49%
    03:00 +19°C° 0 mm 1 m/S 608 mmHg 48%
    04:00 +19°C° 0 mm 1 m/S 608 mmHg 48%
    05:00 +19°C° 0 mm 1 m/S 608 mmHg 50%
    06:00 +19°C° 0 mm 1 m/S 608 mmHg 53%
    07:00 +19°C° 0 mm 1 m/S 608 mmHg 55%
    08:00 +20°C° 0 mm 2 m/S 610 mmHg 49%
    09:00 +24°C° 0 mm 2 m/S 611 mmHg 44%
    10:00 +27°C° 0 mm 3 m/S 612 mmHg 38%
    11:00 +27°C° 0 mm 2 m/S 611 mmHg 39%
    12:00 +27°C° 0 mm 2 m/S 611 mmHg 39%
    13:00 +26°C° 0 mm 1 m/S 610 mmHg 40%
    14:00 +25°C° 0 mm 1 m/S 609 mmHg 42%
    15:00 +24°C° 0 mm 1 m/S 608 mmHg 45%
    16:00 +23°C° 0 mm 1 m/S 608 mmHg 47%
    17:00 +22°C° 0 mm 1 m/S 608 mmHg 47%
    18:00 +22°C° 0 mm 1 m/S 609 mmHg 46%
    19:00 +22°C° 0 mm 1 m/S 609 mmHg 46%
    20:00 +21°C° 0 mm 1 m/S 609 mmHg 47%
    21:00 +20°C° 0 mm 1 m/S 609 mmHg 48%
    22:00 +20°C° 0 mm 1 m/S 609 mmHg 49%
    23:00 +20°C° 0 mm 1 m/S 609 mmHg 49%

    29 April, Montag

    Zeit Temperatur Niederschläge Wind Luftdruck Luftfeuchtigkeit
    00:00 +20°C° 0 mm 1 m/S 609 mmHg 48%
    01:00 +19°C° 0 mm 1 m/S 609 mmHg 48%
    02:00 +19°C° 0 mm 1 m/S 609 mmHg 48%
    03:00 +19°C° 0 mm 1 m/S 609 mmHg 47%
    04:00 +19°C° 0 mm 1 m/S 609 mmHg 47%
    05:00 +19°C° 0 mm 1 m/S 609 mmHg 49%
    06:00 +19°C° 0 mm 1 m/S 609 mmHg 50%
    07:00 +19°C° 0 mm 1 m/S 609 mmHg 52%
    08:00 +22°C° 0 mm 1 m/S 610 mmHg 46%
    09:00 +24°C° 0 mm 2 m/S 612 mmHg 41%
    10:00 +27°C° 0 mm 2 m/S 613 mmHg 35%
    11:00 +27°C° 0 mm 2 m/S 612 mmHg 34%
    12:00 +28°C° 0 mm 2 m/S 611 mmHg 33%
    13:00 +28°C° 0 mm 2 m/S 611 mmHg 32%
    14:00 +27°C° 0 mm 2 m/S 610 mmHg 34%
    15:00 +26°C° 0 mm 2 m/S 609 mmHg 37%
    16:00 +24°C° 0 mm 1 m/S 608 mmHg 40%
    17:00 +23°C° 0 mm 2 m/S 609 mmHg 41%
    18:00 +21°C° 0 mm 2 m/S 609 mmHg 42%
    19:00 +20°C° 0 mm 2 m/S 609 mmHg 43%
    20:00 +21°C° 0 mm 1 m/S 609 mmHg 44%
    21:00 +20°C° 0 mm 1 m/S 609 mmHg 45%
    22:00 +20°C° 0 mm 1 m/S 609 mmHg 45%
    23:00 +19°C° 0 mm 1 m/S 609 mmHg 47%

    30 April, Dienstag

    Zeit Temperatur Niederschläge Wind Luftdruck Luftfeuchtigkeit
    00:00 +17°C° 0 mm 2 m/S 608 mmHg 48%
    01:00 +17°C° 0 mm 2 m/S 608 mmHg 49%
    02:00 +16°C° 0 mm 2 m/S 608 mmHg 52%
    03:00 +16°C° 0 mm 2 m/S 608 mmHg 54%
    04:00 +16°C° 0 mm 2 m/S 608 mmHg 57%
    05:00 +16°C° 0 mm 2 m/S 608 mmHg 60%
    06:00 +16°C° 0 mm 2 m/S 609 mmHg 63%
    07:00 +17°C° 0 mm 2 m/S 609 mmHg 67%
    08:00 +20°C° 0 mm 2 m/S 610 mmHg 56%
    09:00 +22°C° 0 mm 3 m/S 611 mmHg 45%
    10:00 +26°C° 0 mm 3 m/S 613 mmHg 34%
    11:00 +27°C° 0 mm 3 m/S 612 mmHg 32%
    12:00 +28°C° 0 mm 3 m/S 612 mmHg 30%
    13:00 +29°C° 0 mm 2 m/S 611 mmHg 28%
    14:00 +28°C° 0 mm 2 m/S 611 mmHg 31%
    15:00 +26°C° 0 mm 2 m/S 610 mmHg 34%
    16:00 +25°C° 0 mm 2 m/S 609 mmHg 37%
    17:00 +24°C° 0 mm 2 m/S 609 mmHg 40%
    18:00 +21°C° 0 mm 2 m/S 609 mmHg 44%
    19:00 +21°C° 0 mm 1 m/S 609 mmHg 48%
    20:00 +20°C° 0 mm 1 m/S 609 mmHg 50%
    21:00 +20°C° 0 mm 1 m/S 609 mmHg 52%
    22:00 +19°C° 0 mm 1 m/S 609 mmHg 53%
    23:00 +18°C° 0 mm 1 m/S 609 mmHg 56%
    Mehr zeigen